L’AEROCLUB LOUDUNAIS ET L’ANEG PARTENAIRES DU TELETHON 2020

OFFREZ VOUS OU OFFREZ A VOS PROCHES

UN VOL DE DECOUVERTE EN

CHARIOT ASCENSIONNEL, EN AVION OU EN ULM

Un cadeau de Noël extraordinaire doublé d’une action envers le Téléthon

Information en heures locale pour LFDL
21 January 2021

Metar
LFBI 210030Z AUTO 19020KT 5000 -RA BR BKN010/// OVC014/// ///TCU 09/08 Q0996 TEMPO 20025G37KT SHRA BKN010

Lever du soleil : 08:37

Coucher du soleil : 17:44

Actualité

Nous sommes heureux d’accueillir un ULM Savannah au sein de notre flotte. Grace à cet appareil, vous pourrez découvrir une …

Bonjour tout le monde !

Bienvenue à tous, l’ Aéroclub Loudunais vous accueille sur son nouveau site internet.

Newsletter Sign Up

Praesent libero sed cursus anted dapibus diam